User: anonymous   Login
Location: Kunchanapalle
(16.4623°N, 80.6176°E)
Time: 20:00:07
(UTC+00:00)
Language:

ARGOS - Orbit

View from above orbital plane
View from above orbital plane
View from above satellite
View from above satellite

Ground track
Ground track

The orbit data is extracted from the following two-line orbital elements,

1 25634U 99008A   20304.52954669 -.00000001  00000-0  19069-4 0  9992
2 25634  98.4476 337.2071 0009204 243.5438 116.4795 14.19381138123139
Epoch (UTC): 30 October 2020 12:42:32
Eccentricity: 0.0009204
inclination: 98.4476°
perigee height: 821 km
apogee height: 834 km
right ascension of ascending node: 337.2071°
argument of perigee: 243.5438°
revolutions per day: 14.19381138
mean anomaly at epoch: 116.4795°
orbit number at epoch: 12313

The dashed part of the orbit path shows where the satellite is in the earth's shadow,  

DLR